ONEWEB-0668, 56711

Orbit data source: Space-Track

ONEWEB-0668, 56711 is a payload satellite owned by One Web (NAA) (UK) in LEO that was launched on Sat, 20 May 2023 UTC via an FALCON 9 launch vehicle from the Air Force Western Test Range (AFWTR). Payload-class satellites include a variety of spacecraft equipped with specific instruments for various scientific and technological missions. These include communications satellites like Starlink; space stations such as the ISS; scientific satellites like the Hubble; Earth observation satellites from companies like Planet Labs, Umbra, and HawkEye 360; GPS; miniature CubeSats for education and research; and military/defense satellites.

Loading next visibility...
Identifier
56711, 2023-068B
Orbit
LEO
Country
Flag of UKUK
Related business
Manufacturer
One Web
Mission
Operational Commercial Communications
Bus & Motor
ARROW, Unknown motor
Mass
148 kg wet, ~140 kg dry
Launch date (UTC)
2023-05-20 (3 years ago)
Launch vehicle
FALCON 9
Launch site
Air Force Western Test Range (AFWTR)
Object type
Payload
Rocket body
Debris
Shape & HBR
Trap Box + 2 Pan, 6.7 m
Radar Cross Section
3.464 m², Large (>1 m²)

Expand to show TLE details & history
Last TLE update: 2 days ago

TLE from 2 days ago
0 ONEWEB-0668
1 56711U 23068B   26171.39280417  .00000089  00000-0  19928-3 0  9999
2 56711  87.9097 228.1360 0002581  96.3592 263.7833 13.16594976152207
Epoch: 2026-06-20T09:25Z
TLE epoch observation values (Epoch: 2026-06-20T09:25:38.280Z)
Latitude
-0°
Longitude
178.11842°
Altitude
1,200.863 km
Speed
7.253 km/s
True Right ascension
15h 12m 32s
True Declination
0° 00' 00"
Sunlit
Object was in full shadow at epoch
Visualization orbit readout
Latitude
Unknown
Longitude
Unknown
Altitude
Unknown
Speed
Unknown
Apparent Right ascension
Unknown
Apparent Declination
Unknown
Sunlit
N/A
Visualization observer readout
Local Sidereal Time
21:32:22
Azimuth
Unknown
Elevation
Unknown
Doppler factor
Unknown
Orbital elements
Apogee altitude
1,196.819 km
Perigee altitude
1,192.91 km
Semi-major axis
7,573.001 km
Eccentricity
0.00026
Inclination
87.9097°
RAAN
228.136°
Arg. of periapsis
96.3592°
True anomaly
263.7539°
Mean anomaly
263.7833°
Eccentric anomaly
263.7686°
Mean motion
3.29337 °/min
Orbital period
109.31 mins
BSTAR
0.00019928
Loading maneuver chart data...
Computing Atmospheric mass density...
Loading historical data...
Loading historical data...
Loading historical data...
Loading historical data...
Loading historical data...
Loading historical data...
Loading historical data...

Documentation

Showing up to 5 results
|